Flag for U.S.A. Weather past 2 weeks in Winder, Georgia, U.S.A.

Now
77 °F

Sunny.


Feels Like: 78 °F
Forecast: 51 / 73 °F
Wind: 12 mph from Northwest

Location: Winder-Barrow Airport

Current Time: Oct 21, 2014 at 4:02:44 PM

Latest Report: Oct 21, 2014 at 3:15 PM


Visibility: 10 mi

Pressure: 29.96 "Hg

Humidity: 45%

Dew point: 53 °F

Location of WinderLocation

Historic Weather in Winder — Graph

°F

Winder temperature yesterday

Maximum temperature yesterday: 74 °F (at 4:15 PM)
Minimum temperature yesterday: 47 °F (at 7:55 AM)
Average temperature yesterday: 61 °F

Past Weeks' High & Low Weather Summary

 TemperatureHumidityPressure
High85 °F (Oct 11, 4:55 PM)100% (Oct 12, 10:15 PM)30.22 "Hg (Oct 12, 10:15 PM)
Low47 °F (Oct 20, 7:55 AM)43% (Oct 18, 4:15 PM)29.79 "Hg (Oct 14, 3:15 PM)
Average65 °F79%30.00 "Hg
* Reported Oct 11 3:55 PM — Oct 21 2:55 PM, Winder, Weather by CustomWeather, © 2014

Note: Actual official high and low records may vary slightly from our data, if they occured in-between our weather recording intervals... More about our weather records

Advertising

Winder weather history for previous 24 hours

 ConditionsComfort  
Time TempWeatherWind HumidityBarometerVisibility
2:55 PM
Oct 21
76 °FSunny.12 mph50%29.96 "Hg10 mi
2:35 PM76 °FScattered clouds.13 mph48%29.97 "Hg10 mi
2:15 PM75 °FScattered clouds.13 mph54%29.98 "Hg10 mi
1:55 PM76 °FScattered clouds.13 mph52%29.99 "Hg10 mi
1:35 PM75 °FSunny.10 mph56%30.00 "Hg10 mi
1:15 PM75 °FSunny.10 mph55%30.01 "Hg10 mi
12:55 PM75 °FSunny.12 mph55%30.02 "Hg10 mi
12:35 PM74 °FSunny.9 mph56%30.03 "Hg10 mi
12:15 PM74 °FSunny.10 mph55%30.03 "Hg10 mi
11:55 AM72 °FSunny.8 mph59%30.04 "Hg10 mi
11:35 AM71 °FSunny.7 mph61%30.04 "Hg10 mi
11:15 AM70 °FSunny.7 mph65%30.05 "Hg10 mi
10:55 AM69 °FSunny.9 mph66%30.05 "Hg10 mi
10:35 AM68 °FSunny.8 mph69%30.05 "Hg10 mi
10:15 AM67 °FSunny.7 mph72%30.05 "Hg10 mi
9:55 AM65 °FSunny.7 mph73%30.05 "Hg10 mi
9:35 AM64 °FSunny.7 mph75%30.05 "Hg10 mi
9:15 AM62 °FSunny.3 mph79%30.04 "Hg10 mi
9:00 AM60 °FSunny.5 mph82%30.04 "Hg10 mi
8:35 AM57 °FClear.3 mph87%30.03 "Hg10 mi
8:15 AM54 °FClear.7 mph92%30.03 "Hg10 mi
7:55 AM53 °FClear.6 mph94%30.03 "Hg10 mi
7:35 AM53 °FClear.6 mph94%30.03 "Hg10 mi
7:15 AM53 °FClear.5 mph96%30.03 "Hg10 mi
6:55 AM53 °FClear.6 mph96%30.03 "Hg10 mi
6:35 AM52 °FClear.6 mph97%30.02 "Hg10 mi
6:15 AM53 °FClear.6 mph99%30.02 "Hg10 mi
5:55 AM53 °FClear.3 mph98%30.02 "Hg10 mi
5:35 AM53 °FClear.3 mph99%30.01 "Hg10 mi
5:15 AM53 °FClear.5 mph98%30.01 "Hg10 mi
4:55 AM54 °FClear.3 mph99%30.01 "Hg10 mi
4:35 AM55 °FClear.5 mph94%30.01 "Hg10 mi
4:15 AM55 °FClear.5 mph94%30.02 "Hg10 mi
3:55 AM55 °FClear.3 mph96%30.02 "Hg10 mi
3:35 AM55 °FClear.3 mph96%30.02 "Hg10 mi
3:15 AM56 °FClear.3 mph93%30.02 "Hg10 mi
2:55 AM55 °FClear.3 mph94%30.03 "Hg10 mi
2:35 AM54 °FClear.5 mph97%30.03 "Hg10 mi
2:15 AM55 °FClear.3 mph97%30.03 "Hg10 mi
1:55 AM56 °FClear.No wind93%30.03 "Hg10 mi
1:15 AM56 °FClear.3 mph94%30.03 "Hg10 mi
12:55 AM57 °FClear.No wind93%30.04 "Hg10 mi
12:35 AM58 °FClear.No wind92%30.04 "Hg10 mi
12:15 AM60 °FClear.3 mph86%30.04 "Hg10 mi
11:55 PM
Oct 20
61 °FClear.3 mph82%30.04 "Hg10 mi
11:15 PM62 °FClear.3 mph81%30.05 "Hg10 mi
10:55 PM61 °FClear.5 mph84%30.05 "Hg10 mi
10:15 PM61 °FPassing clouds.5 mph83%30.04 "Hg10 mi
9:55 PM62 °FPassing clouds.5 mph82%30.04 "Hg10 mi
9:15 PM60 °FPassing clouds.5 mph89%30.04 "Hg10 mi
8:55 PM61 °FPassing clouds.3 mph87%30.04 "Hg10 mi
8:35 PM61 °FClear.No wind88%30.04 "Hg10 mi
8:15 PM62 °FClear.No wind85%30.04 "Hg10 mi
7:55 PM63 °FClear.No wind80%30.04 "Hg10 mi
7:15 PM65 °FSunny.No wind75%30.03 "Hg10 mi
6:55 PM66 °FSunny.No wind72%30.03 "Hg10 mi
6:35 PM69 °FScattered clouds.No wind65%30.03 "Hg10 mi
6:15 PM70 °FScattered clouds.No wind63%30.03 "Hg10 mi
5:55 PM72 °FSunny.No wind56%30.02 "Hg10 mi
5:15 PM73 °FPartly sunny.No wind53%30.03 "Hg10 mi
4:55 PM72 °FScattered clouds.5 mph54%30.03 "Hg10 mi
4:35 PM72 °FSunny.No wind53%30.03 "Hg10 mi
4:15 PM74 °FScattered clouds.No wind51%30.04 "Hg10 mi
Weather by CustomWeather, © 2014

See weather overviewHow to use our weather pages